This demonstration page uses our WeatherBlox Daily Observations layout. Learn more.

Left ArrowRight Arrow

Hourly Observations for February 25, 2016

Temp ( °F °C ) Dew Point ( °F °C ) Humidity (%) Winds ( mph kmh ) Pressure ( in mb ) Visibility ( mi km ) Precip ( " mm )
12:59 am 00:59 Mostly Clear 62 16.7 50 10 65 65 WSW 21 33 29.44 997 10 16 0.00 0.00
1:59 am 01:59 Mostly Clear 59 15 41 5 51 51 WSW 26 43 29.46 998 10 16 0.00 0.00
2:59 am 02:59 Partly Cloudy 57 13.9 41 5 55 55 WSW 14 22 29.45 997 10 16 0.00 0.00
3:59 am 03:59 Partly Cloudy 54 12.2 37 2.8 53 53 SW 23 37 29.47 998 10 16 0.00 0.00
4:59 am 04:59 Mostly Clear 51 10.6 34 1.1 52 52 WSW 20 31 29.49 999 10 16 0.00 0.00
5:59 am 05:59 Partly Cloudy 49 9.4 34 1.1 56 56 WSW 17 28 29.50 999 10 16 0.00 0.00
6:59 am 06:59 Partly Cloudy 48 8.9 28 -2.2 46 46 W 23 37 29.53 1000 10 16 0.00 0.00
7:59 am 07:59 Mostly Sunny 48 8.9 29 -1.7 48 48 WSW 17 28 29.55 1001 10 16 0.00 0.00
8:59 am 08:59 Mostly Sunny 50 10 28 -2.2 43 43 W 20 31 29.57 1001 10 16 0.00 0.00
9:59 am 09:59 Mostly Cloudy 51 10.6 27 -2.8 39 39 W 22 35 29.58 1002 10 16 0.00 0.00
10:59 am 10:59 Mostly Cloudy 50 10 28 -2.2 43 43 W 17 28 29.59 1002 10 16 0.00 0.00
11:59 am 11:59 Cloudy 50 10 28 -2.2 43 43 W 24 39 29.60 1003 10 16 0.00 0.00
12:59 pm 12:59 Mostly Cloudy 52 11.1 28 -2.2 40 40 W 21 33 29.60 1002 10 16 0.00 0.00
1:59 pm 13:59 Mostly Cloudy 52 11.1 28 -2.2 40 40 W 24 39 29.62 1003 10 16 0.00 0.00
2:59 pm 14:59 Mostly Cloudy 53 11.7 26 -3.3 35 35 W 20 31 29.63 1003 10 16 0.00 0.00
3:59 pm 15:59 Partly Cloudy 54 12.2 26 -3.3 34 34 W 23 37 29.65 1004 10 16 0.00 0.00
4:59 pm 16:59 Mostly Cloudy 52 11.1 26 -3.3 37 37 W 20 31 29.67 1005 10 16 0.00 0.00
5:59 pm 17:59 Mostly Cloudy 51 10.6 25 -3.9 36 36 W 28 44 29.71 1006 10 16 0.00 0.00
6:59 pm 18:59 Mostly Cloudy 50 10 26 -3.3 39 39 W 23 37 29.75 1008 10 16 0.00 0.00
7:59 pm 19:59 Mostly Clear 48 8.9 24 -4.4 39 39 W 24 39 29.79 1009 10 16 0.00 0.00
8:59 pm 20:59 Mostly Clear 48 8.9 24 -4.4 39 39 W 24 39 29.81 1009 10 16 0.00 0.00
9:59 pm 21:59 Mostly Clear 47 8.3 25 -3.9 42 42 W 17 28 29.82 1010 10 16 0.00 0.00
10:59 pm 22:59 Mostly Clear 46 7.8 26 -3.3 46 46 W 15 24 29.82 1010 10 16 0.00 0.00
11:59 pm 23:59 Mostly Cloudy 46 7.8 25 -3.9 44 44 W 16 26 29.83 1010 10 16 0.00 0.00

Powered by AerisWeather